RH
94 71 44 39 31 25 20 18 16 14 12 10 10 10 11 15 16 17 20 25 35 43 42 52 61 72 69 71 67 50 38 47 35 35 43 38 35 26 30 31 22 25 24
95 100 72 64 35 29 23 21 19 18 14 11 10 9 11 11 10 11 11 16 21 31 38 33 33 31 47 54 43 60 70 53 44 51 44 37 35 39 35 28 28 25 29
72 84 99 96 52 39 30 22 20 20 15 14 12 11 10 12 16 13 12 11 11 14 20 22 29 31 32 34 36 38 40 40 33 29 28 28 28 26 35 32 36 44 39
46 55 61 95 80 52 34 27 21 21 17 18 16 14 13 14 16 20 19 18 12 10 11 10 12 14 15 14 16 15 14 13 13 10 10 15 23 33 35 32 33 33 34
39 38 36 40 66 52 38 30 28 22 20 19 18 18 15 16 20 18 17 17 16 14 12 12 11 11 11 10 11 10 9 8 8 7 7 8 8 8 8 8 8 8 8
24 33 35 34 40 36 38 38 28 25 22 24 20 19 19 18 18 19 17 17 19 18 14 13 11 10 10 10 9 8 7 7 8 8 8 8 8 8 9 9 10 10 11
14 13 18 32 31 31 35 38 29 30 26 26 24 24 27 22 21 19 19 18 16 15 13 12 12 10 9 8 9 9 9 9 8 8 9 9 9 10 10 10 12 11 11
20 11 12 20 31 29 27 34 24 32 30 27 29 28 30 31 29 20 16 18 15 14 14 14 12 10 9 10 11 11 10 10 10 11 12 12 13 14 15 14 14 13 13
20 22 12 20 28 29 26 30 25 36 27 29 28 31 30 32 32 29 20 18 17 17 16 16 15 11 10 11 12 12 13 11 12 12 14 15 15 16 16 16 15 14 15
18 16 20 13 38 40 30 28 30 34 26 26 26 28 28 28 34 32 29 19 18 18 16 16 19 16 14 14 15 13 19 21 20 20 17 19 18 19 20 20 19 17 16
52 17 27 15 19 45 38 28 28 29 32 26 29 26 25 29 37 33 32 25 20 18 19 22 24 24 23 24 22 25 25 25 29 28 25 25 24 26 21 21 22 23 22
61 42 34 32 20 29 35 36 28 24 35 33 27 29 18 24 28 36 30 25 24 24 24 26 29 31 29 29 28 26 34 33 30 29 26 21 15 22 22 20 18 23 27
85 53 32 40 30 38 26 31 35 30 33 38 25 24 35 19 20 30 32 32 37 32 30 26 24 23 27 28 25 26 31 39 44 31 37 26 23 18 15 18 16 19 23
84 77 79 44 45 33 30 25 31 36 42 44 39 30 23 34 25 23 25 28 47 47 47 40 39 31 28 29 28 28 27 32 36 39 40 43 26 24 19 20 20 23 22
84 84 79 76 59 39 37 31 31 35 43 59 42 40 29 31 40 30 26 20 30 50 44 40 37 35 32 29 29 30 44 42 43 38 39 41 44 27 23 21 23 27 25
45 89 98 68 75 70 44 39 37 33 38 45 55 44 39 40 31 37 39 24 16 21 37 42 48 41 37 50 36 39 42 44 50 42 32 29 24 21 21 25 27 32 31
15 29 86 98 70 94 75 52 48 35 29 43 54 50 53 53 41 38 35 28 24 18 28 57 83 69 63 46 56 48 58 53 39 36 29 23 25 29 32 30 32 35 36
8 16 37 79 98 89 100 83 67 49 43 31 42 54 38 53 54 46 58 44 40 45 34 38 64 83 74 67 73 64 65 78 64 33 34 33 35 34 41 36 41 41 46
6 8 16 31 92 100 100 100 95 66 42 54 40 38 46 37 45 42 54 80 76 66 51 55 69 74 72 93 93 91 89 80 50 44 46 54 53 47 51 51 47 52 55
5 6 7 100 96 100 100 97 100 100 70 50 51 41 34 58 65 70 66 96 69 59 57 47 62 72 78 94 90 97 93 83 54 54 78 72 69 65 61 61 60 62 78
7 6 6 61 37 96 100 98 82 80 49 67 77 55 56 41 91 79 65 78 100 70 56 72 52 47 46 56 55 62 65 81 100 100 86 98 85 82 82 82 73 81 94
5 8 6 7 16 98 95 100 97 94 91 100 100 96 96 83 51 99 73 61 83 93 58 54 80 71 55 38 51 67 85 94 96 100 100 100 100 97 91 93 97 100 100
4 6 9 6 7 22 80 100 100 100 100 90 91 82 61 70 68 99 99 83 84 80 45 53 67 65 71 42 48 63 67 86 95 100 98 100 100 100 100 100 100 99 95
4 6 7 12 8 93 100 90 99 100 98 99 100 100 100 100 90 85 100 90 85 97 75 68 62 87 99 88 85 94 65 85 77 100 100 100 100 100 100 100 100 100 100
5 8 7 94 13 37 41 100 100 100 100 100 100 100 100 100 93 78 85 100 75 85 92 95 92 88 100 100 100 100 100 100 92 96 100 100 100 100 100 100 100 100 97
6 8 9 12 9 11 68 84 100 96 100 100 100 94 100 100 99 94 95 100 100 98 99 100 100 100 100 100 100 100 100 100 100 98 97 100 100 99 100 100 95 89 91
Wind_Speed
24 25 24 19 20 22 21 17 17 20 21 21 20 22 25 28 27 27 28 30 35 39 39 41 41 43 45 42 43 48 48 47 49 50 51 53 51 54 56 55 56 58 60
33 27 29 26 21 24 21 18 17 21 19 18 19 21 23 26 29 29 26 29 30 34 38 41 43 42 46 49 47 48 49 50 52 52 51 54 54 56 57 59 61 64 66
39 37 32 31 30 25 24 23 21 21 21 18 19 21 22 27 27 26 26 26 29 30 32 33 38 39 41 42 45 47 51 52 52 53 54 55 58 60 61 58 59 63 60
44 42 39 35 36 35 32 26 22 25 24 20 18 15 19 22 25 22 20 20 23 26 28 28 28 27 27 27 31 33 34 37 40 40 42 44 48 50 54 54 51 50 54
50 47 45 43 42 40 33 32 28 27 28 24 23 17 14 16 20 22 22 20 19 18 21 23 24 27 25 25 24 24 26 28 30 33 34 33 34 32 31 31 27 24 24
54 53 50 49 46 44 37 37 30 30 29 27 26 19 15 14 16 20 21 19 17 15 16 14 20 24 22 19 19 17 17 17 18 18 18 17 15 13 13 15 20 22 24
55 55 54 52 52 47 42 40 31 33 32 31 28 23 21 16 13 15 19 20 20 16 16 16 14 16 14 10 9 10 13 13 12 12 12 12 11 15 19 21 24 25 26
66 58 55 58 54 54 48 47 38 37 34 35 33 25 25 22 20 17 16 14 15 12 12 12 12 14 12 9 10 10 13 11 9 10 12 14 16 21 23 25 27 29 30
72 67 61 60 60 57 55 51 46 44 38 36 36 31 28 26 24 22 20 19 17 14 11 9 8 11 10 11 12 13 12 15 17 17 19 24 26 28 31 31 32 34 34
79 75 71 65 64 58 58 54 51 50 44 43 39 37 32 25 29 27 24 26 22 20 15 12 10 10 12 14 13 14 14 17 17 21 24 26 29 30 32 34 36 38 39
83 81 77 72 69 67 60 58 54 54 52 48 43 42 40 33 30 31 26 24 22 24 21 17 12 12 12 12 13 15 20 21 24 25 28 32 30 29 33 36 40 42 44
91 85 83 79 76 73 67 62 60 56 56 53 49 47 44 42 37 32 33 30 29 33 32 24 19 17 19 17 19 21 20 23 28 31 31 33 37 39 40 39 44 44 47
100 94 88 83 83 78 74 70 66 64 61 58 51 51 48 46 46 41 37 35 34 32 33 34 33 32 27 25 27 27 27 28 33 32 36 37 38 40 45 45 43 45 47
94 95 93 90 88 87 80 74 72 70 66 63 60 57 54 47 48 48 45 44 40 38 37 38 38 38 35 32 33 33 34 35 38 40 42 46 45 43 47 46 49 51 48
108 107 94 93 93 94 88 83 78 76 73 69 65 63 58 54 49 48 49 48 44 43 41 40 41 42 41 42 40 40 39 42 43 45 50 52 54 52 53 54 54 52 54
121 115 103 98 97 97 97 91 89 82 81 77 73 68 64 58 55 54 51 52 47 46 45 44 44 45 45 48 46 46 47 46 48 52 53 55 58 58 60 57 55 57 55
116 121 116 105 103 106 100 102 97 90 86 83 79 72 68 66 59 57 56 53 54 51 50 50 51 50 51 51 52 51 50 53 54 58 58 58 60 61 58 58 59 60 61
115 115 115 114 103 106 104 99 101 96 90 88 85 78 70 68 66 62 61 57 59 60 56 55 56 59 58 54 58 59 59 61 63 62 61 62 61 62 61 61 61 63 65
124 120 118 118 109 98 106 105 101 101 96 95 89 84 80 75 71 74 69 63 65 63 64 65 63 64 67 67 65 63 65 66 67 67 66 64 65 65 64 64 66 67 69
130 126 116 91 115 104 103 106 105 103 98 99 94 92 85 82 79 78 77 72 71 69 70 70 70 71 70 72 70 69 70 70 72 69 67 68 66 68 67 67 68 70 73
124 131 126 135 116 111 105 100 93 93 95 98 99 98 94 90 86 86 83 84 79 76 74 73 74 75 75 74 75 73 76 74 73 75 71 70 71 69 69 71 72 73 76
111 123 130 129 119 118 113 106 103 96 97 108 106 103 99 96 91 89 90 90 89 85 81 80 78 78 79 79 78 75 77 76 75 76 76 75 75 75 73 72 74 78 78
103 111 127 126 118 112 83 93 99 106 99 102 107 105 102 102 97 93 95 92 93 92 86 85 83 82 80 84 82 84 81 81 76 78 78 77 78 79 77 77 78 77 81
99 109 109 119 119 109 90 99 100 97 90 87 93 100 106 110 105 100 99 95 95 94 90 90 87 85 83 82 84 86 88 85 81 79 81 80 81 81 80 79 82 84 83
98 107 104 114 109 110 111 92 92 100 99 91 92 94 100 106 107 104 102 100 99 100 96 94 93 93 90 90 88 87 86 87 87 85 81 80 82 84 88 84 85 85 85
96 102 106 111 104 97 88 116 109 93 90 92 94 93 90 99 106 108 107 105 103 104 101 98 97 96 92 91 92 96 91 86 87 81 81 81 85 87 88 87 85 86 87
Wind_Direction
231 240 237 250 251 239 229 231 230 229 220 218 223 219 215 218 218 225 231 232 237 237 240 240 241 244 246 251 255 251 256 263 266 272 275 280 279 280 283 285 283 284 286
235 240 236 245 246 244 243 231 227 227 218 213 218 225 226 224 222 226 230 234 239 239 240 245 248 252 249 254 262 260 258 262 270 274 277 276 277 280 283 283 285 285 288
245 240 239 242 243 246 255 236 231 232 220 229 238 228 227 229 228 226 230 235 238 243 247 252 253 254 256 259 264 265 265 268 271 275 275 278 279 280 282 286 289 292 288
252 250 248 241 240 246 252 247 234 235 231 224 218 220 225 228 227 229 232 236 240 243 245 252 251 253 256 261 264 266 271 273 275 281 285 284 283 285 285 288 291 294 288
249 251 253 251 246 247 248 245 246 228 239 229 223 225 228 218 225 231 230 233 236 239 242 246 247 252 261 270 271 276 284 288 290 288 287 288 286 289 291 293 297 302 304
248 247 251 253 250 250 243 240 233 237 230 228 226 222 210 213 221 228 227 226 218 215 229 236 247 254 262 271 279 286 284 290 296 294 297 302 307 316 317 308 308 305 299
249 249 250 249 250 247 243 238 232 229 236 227 225 226 215 221 228 216 213 211 214 218 227 231 242 246 249 256 277 282 289 293 296 312 319 325 310 304 305 307 312 309 309
250 250 250 250 245 248 244 239 230 231 232 228 223 227 227 224 245 232 215 208 205 203 209 228 239 223 224 248 285 296 292 273 279 300 308 313 312 312 314 317 314 311 307
253 250 251 249 247 246 246 239 236 227 223 226 231 227 231 235 236 245 238 224 218 217 212 223 232 227 236 252 276 291 307 287 289 302 307 311 311 313 312 312 309 306 305
250 249 248 248 244 241 243 240 237 233 225 226 231 228 228 246 239 237 238 232 229 219 220 228 237 243 247 255 259 273 293 305 304 299 299 304 301 304 305 306 307 304 302
248 247 244 242 246 242 241 239 238 234 235 229 227 228 228 242 240 235 227 234 242 240 237 241 239 250 257 264 268 277 292 297 303 308 302 311 304 304 309 303 303 303 300
248 247 245 243 241 241 239 240 236 238 237 231 228 232 238 237 238 248 236 237 242 246 255 262 259 255 257 259 261 266 281 289 300 302 308 310 316 304 310 309 310 303 304
245 248 246 243 241 238 240 239 239 239 238 237 238 237 239 239 238 242 244 246 244 252 248 258 264 266 266 265 265 270 281 292 299 298 306 302 304 307 307 308 307 306 305
237 240 242 243 240 239 238 239 238 239 237 239 241 247 243 239 242 242 246 249 246 249 253 261 265 270 275 274 270 273 279 284 286 295 298 306 305 298 306 305 308 311 306
240 238 237 238 239 239 237 238 238 238 239 237 242 244 243 241 241 247 247 247 245 246 251 256 261 266 269 272 277 277 282 286 287 292 297 297 301 303 302 306 308 307 307
240 238 236 232 235 237 238 237 239 238 238 239 240 242 242 243 243 243 246 248 247 250 253 258 262 265 269 275 274 276 282 288 289 292 295 296 301 301 303 304 303 302 302
236 239 234 233 232 235 236 237 238 239 241 239 239 239 242 245 244 244 247 249 253 253 257 261 264 268 269 272 276 277 282 285 288 289 292 295 299 302 301 299 298 304 301
233 235 234 232 231 231 233 235 235 238 240 242 240 238 238 241 249 247 247 253 255 259 260 262 268 271 271 274 279 280 281 283 286 288 292 295 298 303 299 298 296 300 301
230 231 234 235 229 228 231 232 232 234 237 240 240 241 239 241 244 249 248 248 252 256 262 263 265 269 273 274 277 279 280 282 286 289 293 294 297 300 298 298 297 296 297
233 228 226 211 229 226 227 228 229 233 235 239 240 242 242 241 242 244 248 248 251 253 257 261 265 267 271 272 276 278 280 282 283 285 288 292 293 295 297 298 296 294 296
231 229 225 220 229 224 223 224 227 232 237 238 239 240 242 242 241 244 246 249 252 252 256 259 262 268 270 274 276 276 279 279 282 284 287 288 289 293 295 296 296 295 297
229 227 226 225 222 223 229 231 230 231 232 232 234 237 239 242 243 243 245 248 253 253 256 259 260 266 270 273 275 277 275 278 281 281 284 286 287 291 294 294 294 295 296
224 223 224 223 220 224 222 234 226 227 225 231 235 238 242 243 243 242 246 248 251 254 257 259 263 265 270 273 275 279 280 279 279 280 286 287 288 290 292 293 294 295 295
219 220 219 223 220 215 213 228 230 227 226 227 233 235 238 240 241 243 245 248 252 254 257 259 261 264 268 271 273 275 280 280 282 281 284 285 288 289 291 292 293 295 296
216 216 211 209 215 216 224 226 233 224 227 228 229 235 239 240 239 242 245 248 250 253 256 259 262 264 266 267 270 272 272 276 280 279 284 284 285 287 290 290 294 295 298
210 211 210 211 211 214 220 229 223 225 228 228 230 235 240 241 241 241 244 248 252 255 256 259 262 265 267 268 269 273 272 272 276 280 284 286 286 287 288 289 292 295 296